| time (UTC) | temp C | wind direction | speed KPH | gust KPH | rain 1hr cm | rain 24hr cm | rain mn cm | humidity % | barometer mb |
| 20260509184507 | 13 | 138 | 14.5 | 25.7 | 0.00 | 0.00 | 0.00 | 72 | 1007.2 |
| 20260509183014 | 13 | 150 | 12.9 | 25.7 | 0.00 | 0.00 | 0.00 | 73 | 1007.4 |
| 20260509181511 | 13 | 202 | 9.7 | 22.5 | 0.00 | 0.00 | 0.00 | 72 | 1007.4 |
| 20260509180013 | 13 | 163 | 11.3 | 25.7 | 0.00 | 0.00 | 0.00 | 74 | 1007.6 |
| 20260509174536 | 12 | 178 | 4.8 | 20.9 | 0.00 | 0.00 | 0.00 | 77 | 1007.6 |
| 20260509173007 | 12 | 166 | 11.3 | 20.9 | 0.00 | 0.00 | 0.00 | 76 | 1007.6 |
| 20260509171510 | 11 | 128 | 9.7 | 17.7 | 0.00 | 0.00 | 0.00 | 77 | 1007.9 |
| 20260509170012 | 11 | 135 | 6.4 | 27.4 | 0.00 | 0.00 | 0.00 | 77 | 1008.1 |
| 20260509164517 | 11 | 143 | 11.3 | 24.1 | 0.00 | 0.00 | 0.00 | 77 | 1008.2 |
| 20260509163014 | 11 | 157 | 9.7 | 19.3 | 0.00 | 0.00 | 0.00 | 78 | 1008.3 |
| 20260509161521 | 11 | 155 | 11.3 | 22.5 | 0.00 | 0.00 | 0.00 | 76 | 1008.6 |
| 20260509160016 | 12 | 165 | 8.0 | 17.7 | 0.00 | 0.00 | 0.00 | 75 | 1008.7 |
| 20260509154516 | 11 | 135 | 12.9 | 20.9 | 0.00 | 0.00 | 0.00 | 76 | 1008.9 |
| 20260509153027 | 11 | 135 | 3.2 | 14.5 | 0.00 | 0.00 | 0.00 | 76 | 1009.1 |
| 20260509151518 | 11 | 161 | 6.4 | 19.3 | 0.00 | 0.00 | 0.00 | 75 | 1009.3 |
| 20260509150022 | 11 | 161 | 6.4 | 19.3 | 0.00 | 0.00 | 0.00 | 74 | 1009.2 |
| 20260509144520 | 10 | 126 | 8.0 | 20.9 | 0.00 | 0.00 | 0.00 | 75 | 1009.3 |
| 20260509143018 | 10 | 176 | 6.4 | 16.1 | 0.00 | 0.00 | 0.00 | 73 | 1009.4 |
| 20260509141517 | 9 | 160 | 8.0 | 19.3 | 0.00 | 0.00 | 0.00 | 74 | 1009.6 |
| 20260509140018 | 9 | 136 | 9.7 | 19.3 | 0.00 | 0.00 | 0.00 | 74 | 1009.7 |
| 20260509134519 | 8 | 128 | 8.0 | 19.3 | 0.00 | 0.00 | 0.00 | 73 | 1009.6 |
| 20260509133018 | 8 | 142 | 9.7 | 20.9 | 0.00 | 0.00 | 0.00 | 73 | 1009.8 |
| 20260509131523 | 8 | 217 | 6.4 | 16.1 | 0.00 | 0.00 | 0.00 | 73 | 1010.0 |
| 20260509130020 | 7 | 197 | 4.8 | 16.1 | 0.00 | 0.00 | 0.00 | 73 | 1010.0 |
| 20260509124522 | 7 | 180 | 4.8 | 17.7 | 0.00 | 0.00 | 0.00 | 72 | 1010.0 |
| 20260509123017 | 6 | 162 | 6.4 | 16.1 | 0.00 | 0.00 | 0.00 | 73 | 1010.0 |
| 20260509121504 | 6 | 171 | 4.8 | 16.1 | 0.00 | 0.00 | 0.00 | 74 | 1010.0 |
| 20260509120005 | 5 | 136 | 6.4 | 12.9 | 0.00 | 0.00 | 0.00 | 72 | 1010.2 |
| 20260509114524 | 5 | 190 | 6.4 | 17.7 | 0.00 | 0.00 | 0.00 | 72 | 1010.2 |
| 20260509113017 | 5 | 148 | 6.4 | 14.5 | 0.00 | 0.00 | 0.00 | 72 | 1010.0 |
| 20260509111524 | 4 | 151 | 8.0 | 16.1 | 0.00 | 0.00 | 0.00 | 73 | 1009.9 |
| 20260509110004 | 3 | 146 | 6.4 | 16.1 | 0.00 | 0.00 | 0.00 | 75 | 1010.0 |
| 20260509104507 | 3 | 134 | 6.4 | 14.5 | 0.00 | 0.00 | 0.00 | 76 | 1010.2 |
| 20260509103012 | 2 | 169 | 6.4 | 14.5 | 0.00 | 0.00 | 0.00 | 77 | 1010.1 |
| 20260509101526 | 2 | 157 | 8.0 | 12.9 | 0.00 | 0.00 | 0.00 | 78 | 1010.0 |
| 20260509100021 | 1 | 165 | 3.2 | 9.7 | 0.00 | 0.00 | 0.00 | 80 | 1009.9 |
| 20260509094506 | 2 | 187 | 4.8 | 11.3 | 0.00 | 0.00 | 0.00 | 80 | 1009.9 |
| 20260509093010 | 1 | 173 | 1.6 | 8.0 | 0.00 | 0.00 | 0.00 | 80 | 1009.9 |
| 20260509091514 | 1 | 173 | 3.2 | 11.3 | 0.00 | 0.00 | 0.00 | 80 | 1010.0 |
| 20260509090020 | 1 | 163 | 4.8 | 9.7 | 0.00 | 0.00 | 0.00 | 80 | 1010.2 |
| 20260509084530 | 2 | 156 | 0.0 | 11.3 | 0.00 | 0.00 | 0.00 | 80 | 1010.5 |
| 20260509083011 | 1 | 178 | 6.4 | 14.5 | 0.00 | 0.00 | 0.00 | 81 | 1010.5 |
| 20260509081510 | 1 | 180 | 6.4 | 9.7 | 0.00 | 0.00 | 0.00 | 82 | 1010.7 |
| 20260509080018 | 1 | 173 | 3.2 | 9.7 | 0.00 | 0.00 | 0.00 | 82 | 1010.8 |
| 20260509074526 | 1 | 169 | 3.2 | 8.0 | 0.00 | 0.00 | 0.00 | 82 | 1010.8 |
| 20260509073024 | 1 | 167 | 3.2 | 8.0 | 0.00 | 0.00 | 0.00 | 83 | 1010.9 |
| 20260509071510 | 1 | 184 | 3.2 | 9.7 | 0.00 | 0.00 | 0.00 | 84 | 1010.9 |
| 20260509070015 | 1 | 165 | 1.6 | 6.4 | 0.00 | 0.00 | 0.00 | 84 | 1010.9 |
| 20260509064519 | 1 | 161 | 1.6 | 6.4 | 0.00 | 0.00 | 0.00 | 83 | 1011.0 |
| 20260509063026 | 1 | 159 | 1.6 | 4.8 | 0.00 | 0.00 | 0.00 | 83 | 1011.2 |
| 20260509061528 | 1 | 148 | 1.6 | 3.2 | 0.00 | 0.00 | 0.00 | 84 | 1011.3 |
| 20260509060010 | 2 | 164 | 0.0 | 8.0 | 0.00 | 0.00 | 0.00 | 84 | 1011.4 |
| 20260509054516 | 2 | 157 | 3.2 | 8.0 | 0.00 | 0.03 | 0.00 | 84 | 1011.5 |
| 20260509053022 | 2 | 161 | 6.4 | 11.3 | 0.00 | 0.03 | 0.00 | 86 | 1011.5 |
| 20260509051523 | 2 | 165 | 4.8 | 11.3 | 0.00 | 0.03 | 0.00 | 87 | 1011.7 |
| 20260509050042 | 2 | 169 | 4.8 | 9.7 | 0.00 | 0.03 | 0.00 | 89 | 1011.8 |
| 20260509044512 | 1 | 169 | 3.2 | 8.0 | 0.00 | 0.03 | 0.00 | 90 | 1011.9 |
| 20260509043016 | 1 | 182 | 1.6 | 6.4 | 0.00 | 0.03 | 0.00 | 91 | 1012.1 |
| 20260509041523 | 0 | 311 | 1.6 | 3.2 | 0.00 | 0.03 | 0.00 | 89 | 1012.1 |
| 20260509040026 | 0 | 311 | 0.0 | 3.2 | 0.00 | 0.03 | 0.00 | 87 | 1012.1 |
| 20260509034528 | 0 | 311 | 0.0 | 3.2 | 0.00 | 0.03 | 0.03 | 87 | 1012.1 |
| 20260509033012 | 1 | 311 | 0.0 | 1.6 | 0.00 | 0.03 | 0.03 | 86 | 1012.0 |
| 20260509031530 | 1 | 311 | 0.0 | 3.2 | 0.00 | 0.03 | 0.03 | 84 | 1012.0 |
| 20260509030032 | 1 | 311 | 1.6 | 3.2 | 0.00 | 0.03 | 0.03 | 84 | 1012.1 |
| 20260509024504 | 1 | 311 | 0.0 | 1.6 | 0.00 | 0.03 | 0.03 | 84 | 1012.2 |
| 20260509023017 | 1 | 311 | 0.0 | 3.2 | 0.00 | 0.03 | 0.03 | 83 | 1012.2 |
| 20260509021518 | 1 | 311 | 1.6 | 3.2 | 0.00 | 0.03 | 0.03 | 80 | 1012.3 |
| 20260509020021 | 2 | 311 | 0.0 | 1.6 | 0.00 | 0.03 | 0.03 | 79 | 1012.3 |
| 20260509014527 | 2 | 311 | 0.0 | 3.2 | 0.00 | 0.03 | 0.03 | 78 | 1012.1 |
| 20260509013016 | 3 | 311 | 0.0 | 1.6 | 0.00 | 0.03 | 0.03 | 74 | 1011.9 |
| 20260509011514 | 3 | 311 | 0.0 | 0.0 | 0.00 | 0.03 | 0.03 | 75 | 1011.8 |
| 20260509010023 | 4 | 311 | 0.0 | 1.6 | 0.00 | 0.03 | 0.03 | 71 | 1011.6 |
| 20260509004533 | 5 | 311 | 0.0 | 0.0 | 0.00 | 0.03 | 0.03 | 64 | 1011.5 |
| 20260509003024 | 6 | 311 | 0.0 | 0.0 | 0.00 | 0.03 | 0.03 | 62 | 1011.4 |
| 20260509001512 | 7 | 311 | 0.0 | 1.6 | 0.00 | 0.03 | 0.03 | 50 | 1011.3 |
| 20260509000016 | 8 | 311 | 0.0 | 1.6 | 0.00 | 0.03 | 0.03 | 48 | 1011.2 |
| 20260508234517 | 9 | 311 | 0.0 | 1.6 | 0.00 | 0.03 | 0.03 | 43 | 1011.2 |
| 20260508233023 | 10 | 310 | 1.6 | 6.4 | 0.00 | 0.03 | 0.03 | 40 | 1011.1 |
| 20260508231530 | 11 | 321 | 0.0 | 9.7 | 0.00 | 0.03 | 0.03 | 39 | 1011.0 |
| 20260508230013 | 11 | 264 | 0.0 | 4.8 | 0.00 | 0.03 | 0.03 | 35 | 1011.1 |
| 20260508224519 | 11 | 321 | 4.8 | 11.3 | 0.00 | 0.03 | 0.03 | 35 | 1011.1 |
| 20260508223033 | 11 | 343 | 8.0 | 16.1 | 0.00 | 0.03 | 0.03 | 36 | 1011.2 |
| 20260508221531 | 11 | 32 | 3.2 | 14.5 | 0.00 | 0.03 | 0.03 | 40 | 1011.3 |
| 20260508220021 | 11 | 278 | 9.7 | 16.1 | 0.00 | 0.03 | 0.03 | 40 | 1011.3 |
| 20260508214516 | 10 | 286 | 4.8 | 19.3 | 0.00 | 0.03 | 0.03 | 42 | 1011.4 |
| 20260508213029 | 11 | 242 | 4.8 | 14.5 | 0.00 | 0.03 | 0.03 | 42 | 1011.2 |
| 20260508211529 | 11 | 350 | 4.8 | 19.3 | 0.00 | 0.03 | 0.03 | 40 | 1011.3 |
| 20260508210032 | 11 | 325 | 6.4 | 16.1 | 0.00 | 0.03 | 0.03 | 43 | 1011.4 |
| 20260508204512 | 10 | 242 | 12.9 | 19.3 | 0.00 | 0.03 | 0.03 | 42 | 1011.5 |
| 20260508203020 | 10 | 299 | 6.4 | 19.3 | 0.00 | 0.03 | 0.03 | 45 | 1011.7 |
| 20260508201522 | 9 | 355 | 1.6 | 14.5 | 0.00 | 0.03 | 0.03 | 52 | 1011.7 |
| 20260508200031 | 9 | 257 | 3.2 | 16.1 | 0.00 | 0.03 | 0.03 | 52 | 1011.9 |
| 20260508194527 | 10 | 13 | 11.3 | 24.1 | 0.00 | 0.03 | 0.03 | 54 | 1012.0 |
| 20260508193014 | 10 | 249 | 3.2 | 19.3 | 0.00 | 0.03 | 0.03 | 53 | 1011.9 |
| 20260508191525 | 9 | 309 | 8.0 | 25.7 | 0.00 | 0.03 | 0.03 | 58 | 1012.0 |
| 20260508190033 | 9 | 319 | 8.0 | 19.3 | 0.00 | 0.03 | 0.03 | 58 | 1011.9 |